DIRECTV 14

Last updated on Mon Oct 20 2025 00:02:48 GMT+0000 (Coordinated Universal Time)

1 40333U 14078B 25292.24764378 -.00000128 00000+0 00000+0 0 9994 2 40333 0.0220 241.2944 0000369 312.4429 184.1763 1.00270851 39622
UTC large
Height (km)
Speed (km/s)
/
Latitude / Longitude
Inclination (degrees)
Orbital Period (minutes)
Azimuth
Elevation
Range (km)
Doppler Factor

Next 0 passes for location: London (51.5072 / 0.1276)

Sorry there are no passes over London.